McCook, NE

1:50 AM CST on February 25, 2017 (GMT -0600)
McCook Municipal

Weather History for KMCK - January, 2014

Change the Weather History Date:

Wednesday, January 29, 2014

  Actual Average Record
Temperature  
Mean Temperature 30 °F 28 °F  
Max Temperature 58 °F 41 °F 72 °F (1931)
Min Temperature 2 °F 14 °F -13 °F (1922)
Degree Days  
Heating Degree Days 35    
Moisture  
Dew Point 5 °F    
Average Humidity 44    
Maximum Humidity 80    
Minimum Humidity 12    
Precipitation  
Precipitation 0.00 in 0.01 in 0.52 in (1989)
Month to date precipitation 0.01 0.47  
Year to date precipitation 0.01 0.47  
Sea Level Pressure  
Sea Level Pressure 29.93 in    
Wind  
Wind Speed 10 mph (SW)    
Max Wind Speed 21 mph    
Max Gust Speed 26 mph    
Visibility 10 miles    
Events      
T = Trace of Precipitation, MM = Missing Value Source: NWS Daily Summary

Daily Weather History Graph

Daily Weather History Graph

Search for Another Location

Airport or City:

Trip Planner

Search our weather history database for the weather conditions in past years. The results will help you decide how hot, cold, wet, or windy it might be!

Date:

Astronomy

Jan. 29, 2014 Rise Set
Actual Time 7:53 AM CST 5:57 PM CST
Civil Twilight 7:25 AM CST 6:26 PM CST
Nautical Twilight 6:52 AM CST 6:59 PM CST
Astronomical Twilight 6:20 AM CST 7:31 PM CST
Moon 6:32 AM CST (1/29) 4:59 PM CST (1/29)
Length of Visible Light 11h 01m
Length of Day
10h 03m
Waning Crescent, 2% of the Moon is Illuminated
Jan 29
Waning Crescent
Jan 30
New
Feb 6
First Quarter
Feb 14
Full
Feb 22
Last Quarter

Hourly Weather History & Observations

Time (CST) Temp. Windchill Dew Point Humidity Pressure Visibility Wind Dir Wind Speed Gust Speed Precip Events Conditions
12:53 AM 9.0 °F -5.1 °F -2.0 °F 61% 30.23 in 10.0 mi WSW 10.4 mph - N/A   Clear
1:53 AM 5.0 °F - -4.0 °F 66% 30.22 in 10.0 mi Calm Calm - N/A   Clear
2:53 AM 3.9 °F -8.2 °F -2.9 °F 73% 30.19 in 10.0 mi West 6.9 mph - N/A   Clear
3:53 AM 5.0 °F -6.9 °F -2.9 °F 70% 30.16 in 10.0 mi WSW 6.9 mph - N/A   Clear
4:53 AM 3.9 °F -8.2 °F -2.0 °F 76% 30.14 in 10.0 mi SW 6.9 mph - N/A   Clear
5:53 AM 3.0 °F -8.0 °F -2.0 °F 80% 30.13 in 10.0 mi WSW 5.8 mph - N/A   Clear
6:53 AM 3.9 °F -6.9 °F -0.9 °F 80% 30.12 in 10.0 mi WSW 5.8 mph - N/A   Clear
7:53 AM 3.0 °F -8.0 °F -2.0 °F 80% 30.12 in 10.0 mi WSW 5.8 mph - N/A   Clear
8:53 AM 10.0 °F -2.9 °F 3.0 °F 73% 30.12 in 10.0 mi WSW 9.2 mph - N/A   Clear
9:53 AM 19.9 °F 7.9 °F 7.0 °F 57% 30.09 in 10.0 mi West 11.5 mph - N/A   Clear
10:53 AM 28.0 °F 20.0 °F 9.0 °F 45% 30.06 in 10.0 mi WSW 8.1 mph - N/A   Clear
11:53 AM 39.0 °F 32.8 °F 9.0 °F 29% 30.01 in 10.0 mi WSW 9.2 mph - N/A   Clear
12:53 PM 48.9 °F - 6.1 °F 18% 29.94 in 10.0 mi WSW 12.7 mph - N/A   Clear
1:53 PM 52.0 °F - 7.0 °F 16% 29.88 in 10.0 mi West 16.1 mph - N/A   Clear
2:53 PM 57.0 °F - 6.1 °F 13% 29.83 in 10.0 mi WSW 18.4 mph 26.5 mph N/A   Clear
3:53 PM 57.0 °F - 6.1 °F 13% 29.81 in 10.0 mi WSW 19.6 mph - N/A   Clear
4:53 PM 54.0 °F - 1.9 °F 12% 29.79 in 10.0 mi SSW 20.7 mph 26.5 mph N/A   Clear
5:53 PM 48.0 °F - 7.0 °F 19% 29.76 in 10.0 mi SSW 13.8 mph - N/A   Clear
6:53 PM 44.1 °F 38.6 °F 7.0 °F 22% 29.74 in 10.0 mi SW 10.4 mph - N/A   Clear
7:53 PM 42.1 °F 35.2 °F 9.0 °F 26% 29.71 in 10.0 mi SSW 12.7 mph - N/A   Clear
8:53 PM 45.0 °F 37.4 °F 12.0 °F 26% 29.66 in 10.0 mi SSW 18.4 mph - N/A   Mostly Cloudy
9:53 PM 44.1 °F 35.7 °F 14.0 °F 30% 29.59 in 10.0 mi SSW 20.7 mph 26.5 mph N/A   Overcast
10:53 PM 43.0 °F 35.7 °F 14.0 °F 31% 29.53 in 10.0 mi SSW 15.0 mph 25.3 mph N/A   Mostly Cloudy
11:53 PM 42.1 °F 34.5 °F 12.0 °F 29% 29.47 in 10.0 mi SW 15.0 mph - N/A   Clear